Weather History for Toluca Jose Maria, Mexico

Change the Weather History Date:

Monday, December 24, 2012

  Actual Average Record
Temperature  
Mean Temperature 52 °F -  
Max Temperature 71 °F 65 °F 75 °F (2008)
Min Temperature 32 °F 30 °F 26 °F (2000)
Degree Days  
Heating Degree Days 14    
Growing Degree Days 2 (Base 50)    
Moisture  
Dew Point 33 °F    
Average Humidity 61    
Maximum Humidity 93    
Minimum Humidity 17    
Precipitation  
Precipitation 0.00 in - - ()
Sea Level Pressure  
Sea Level Pressure 30.15 in    
Wind  
Wind Speed 4 mph ()    
Max Wind Speed 17 mph    
Max Gust Speed -    
Visibility 5.7 miles    
Events      
Averages and records for this station are not official NWS values.
T = Trace of Precipitation, MM = Missing Value Source: Averaged Metar Reports

Daily Weather History Graph

Daily Weather History Graph

Search for Another Location

Airport:

Trip Planner

Search our weather history database for the weather conditions in past years. The results will help you decide how hot, cold, wet, or windy it might be!

Date:

Astronomy

Dec. 24, 2012 Rise Set
Actual Time 7:09 AM CST 6:07 PM CST
Civil Twilight 6:45 AM CST 6:31 PM CST
Nautical Twilight 6:17 AM CST 6:58 PM CST
Astronomical Twilight 5:50 AM CST 7:25 PM CST
Moon 3:27 PM CST (12/24) 3:59 AM CST (12/24)
Length of Visible Light 11h 45m
Length of Day
10h 58m
Waxing Gibbous, 88% of the Moon is Illuminated
Dec 24
Waxing Gibbous
Dec 28
Full
Jan 4
Last Quarter
Jan 11
New
Jan 18
First Quarter

Hourly Weather History & Observations

Time (CST) Temp. Windchill Dew Point Humidity Pressure Visibility Wind Dir Wind Speed Gust Speed Precip Events Conditions
12:45 AM 37.4 °F 33.8 °F 30.2 °F 75% 30.38 in 7.0 mi East 4.6 mph - N/A   Clear
1:45 AM 35.6 °F - 30.2 °F 81% 30.36 in 5.0 mi Calm Calm - N/A   Clear
2:45 AM 35.6 °F - 32.0 °F 87% 29.88 in 5.0 mi Calm Calm - N/A   Clear
3:45 AM 32.0 °F 27.5 °F 30.2 °F 93% 30.34 in 5.0 mi ESE 4.6 mph - N/A   Clear
4:45 AM 35.6 °F - 30.2 °F 81% 30.34 in 5.0 mi Calm Calm - N/A   Clear
5:45 AM 33.8 °F - 30.2 °F 87% 29.96 in 5.0 mi Calm Calm - N/A   Clear
6:45 AM 32.0 °F 28.7 °F 28.4 °F 87% 30.35 in 2.0 mi North 3.5 mph - N/A   Clear
7:45 AM 32.0 °F - 28.4 °F 87% 30.37 in 3.0 mi Calm Calm - N/A   Clear
8:45 AM 39.2 °F - 35.6 °F 87% 30.05 in 5.0 mi Calm Calm - N/A   Clear
9:45 AM 51.8 °F - 35.6 °F 54% 30.05 in 6.0 mi Calm Calm - N/A   Clear
10:45 AM 59.0 °F - 32.0 °F 36% 30.36 in 6.0 mi South 3.5 mph - N/A   Clear
11:45 AM 66.2 °F - 28.4 °F 24% 29.87 in 6.0 mi SSE 6.9 mph - N/A   Clear
12:45 PM 68.0 °F - 23.0 °F 18% 30.30 in 7.0 mi South 5.8 mph - N/A   Scattered Clouds
1:45 PM 71.6 °F - 24.8 °F 17% 30.24 in 7.0 mi SSE 12.7 mph - N/A   Scattered Clouds
2:45 PM 71.6 °F - 26.6 °F 19% 29.74 in 7.0 mi SSE 8.1 mph - N/A   Scattered Clouds
3:45 PM 68.0 °F - 33.8 °F 28% 30.21 in 7.0 mi South 16.1 mph - N/A   Scattered Clouds
4:45 PM 66.2 °F - 33.8 °F 30% 30.21 in 7.0 mi South 17.3 mph - N/A   Scattered Clouds
5:45 PM 64.4 °F - 33.8 °F 32% 29.79 in 7.0 mi South 15.0 mph - N/A   Mostly Cloudy
6:45 PM 57.2 °F - 35.6 °F 44% 30.25 in 7.0 mi SSE 6.9 mph - N/A   Mostly Cloudy
7:45 PM 53.6 °F - 42.8 °F 67% 30.27 in 7.0 mi NW 8.1 mph - N/A   Mostly Cloudy
8:45 PM 48.2 °F - 41.0 °F 76% 29.95 in 7.0 mi South 4.6 mph - N/A   Scattered Clouds
9:45 PM 44.6 °F - 39.2 °F 81% 30.31 in 7.0 mi Calm Calm - N/A   Clear
10:45 PM 42.8 °F - 37.4 °F 81% 30.31 in 3.0 mi SSW 2.3 mph - N/A   Clear
11:45 PM 42.8 °F - 37.4 °F 81% 29.82 in 3.0 mi Calm Calm - N/A   Clear